User: anonymous   Login
Location: Unspecified
(0.0000°N, 0.0000°E)
Time: 10:33:26
(UTC+00:00)
Language:

USA 238 DEB - Orbit

View from above orbital plane
View from above orbital plane
View from above satellite
View from above satellite

Ground track
Ground track

The orbit data is extracted from the following two-line orbital elements,

1 38773U 12048P   18230.03343158 0.00000000  00000-0  00000-0 0    07
2 38773  63.4358 294.9973 0065000   5.4322 354.5678 13.40757887    07
Epoch (UTC): 18 August 2018 00:48:08
Eccentricity: 0.0065000
inclination: 63.4358°
perigee height: 1058 km
apogee height: 1155 km
right ascension of ascending node: 294.9973°
argument of perigee: 5.4322°
revolutions per day: 13.40757887
mean anomaly at epoch: 354.5678°
orbit number at epoch: 0

The dashed part of the orbit path shows where the satellite is in the earth's shadow,  

DLR